Regional Weather Roundup
Issued by NWS Binghamton, NY

Home | Current Version | Previous Version | Text Only | Print | Product List | Glossary On
Versions: 1 2 3 4 5 6 7 8 9 10 11 12 13 14 15 16 17 18 19 20 21 22 23 24 25 26 27 28 29 30 31 32 33 34 35 36 37 38 39 40 41 42 43 44 45 46 47 48 49 50
000
ASUS41 KBGM 171010
RWRBGM
RWRBGM
BINGHAMTON REGIONAL WEATHER ROUNDUP
NATIONAL WEATHER SERVICE BINGHAMTON NY
600 AM EDT WED SEP 17 2014

Note: "fair" indicates few or no clouds below 12,000 feet with no
significant weather and/or obstructions to visibility.

* = Station(s) that does not report precipitation, such as rain,
snow, etc, also no thunder or fog.

!NYZ009-015>018-022>025-036-037-044>046-055>057-062-171100
...CENTRAL NEW YORK...

CITY           SKY/WX    TMP DP  RH WIND       PRES   REMARKS
BINGHAMTON     MOCLDY    45  43  93 W5        30.05S
CORTLAND       FOG       41  41 100 CALM      30.07S VSB 1/2
DANSVILLE      MOCLDY    47  44  90 SE5       30.07S
ELMIRA         CLOUDY    47  46  97 CALM      30.07S
ITHACA         CLOUDY    43  43 100 E5        30.07F
HAMILTON       CLOUDY    41  39  93 CALM      30.05F
MONTICELLO       N/A     37  37 100 CALM      30.07S VSB 1/2
NORWICH        FOG       41  41 100 CALM      30.07F VSB 1/2
PENN YAN       MOCLDY    50  47  89 SW5       30.05S
ROME           MOCLDY    46  45  96 CALM      30.06S
SIDNEY         FOG       43  43 100 CALM      30.07S VSB 1/2
SYRACUSE       CLEAR     47  43  86 CALM      30.04S
$$

!PAZ038>040-043-044-047-048-072-171100
...NORTHEAST PENNSYLVANIA...

CITY           SKY/WX    TMP DP  RH WIND       PRES   REMARKS
HAZLETON       FOG       41  39  93 CALM      30.10R VSB 3/4
SCRANTON       MOCLDY    44  41  89 E3        30.07R
TOWANDA*       PTCLDY    43  43 100 CALM      30.09R
$$
&&
KEY
WCI = WIND CHILL INDEX
VSB = VISIBILITY
HX  = HEAT INDEX
$$


USA.gov is the U.S. government's official web portal to all federal, state and local government web resources and services.